Notices

What's New in latest Release from April 7th, 2021:

- Updated Glossary, including Speed of Maximum Gust, and Total Hourly Precipitation

- Updated national and regional climate services offices contacts and prices information

- Addition of station inventory lists for 1981-2010, 1971-2000, and 1961-1990 Normals.

If you haven't already, please take our survey and provide feedback about our website: https://eccc.sondage-survey.ca/f/LanguageSelection.aspx?s=442ca660-fcf1-47c0-95a9-59707d6fd709

Hourly Data Report for January 29, 2021

STE-ANNE-DE-BELLEVUE 1
QUEBEC
Current Station Operator: ECCC - MSC

45°25'38.000" N
73°55'45.000" W
39.00 m
702FHL8
71377
WVQ

Download Data

Hourly Data (January 2021)
Hourly Data Report for January 29, 2021
TIME
LST
Temp Definition
°C
Dew Point Definition
°C
Rel Hum Definition
%
Precip. Amount Definition
mm

Wind Dir Definition
10's deg

Wind Spd Definition
km/h
Visibility Definition
km
Stn Press Definition
kPa
Hmdx Definition


Wind Chill Definition


Weather Definition


00:00 -16.7 -21.5 66 0.0 27 15   101.66   -25 LegendNANA
01:00 -16.6 -21.1 68 0.0 27 14   101.63   -25 LegendNANA
02:00 -16.8 -20.5 73 0.0 28 18   101.61   -26 LegendNANA
03:00 -17.2 -19.9 79 0.2 28 19   101.60   -27 LegendNANA
04:00 -17.3 -20.3 77 0.0 28 18   101.60   -27 LegendNANA
05:00 -17.3 -20.4 77 0.0 28 19   101.63   -27 LegendNANA
06:00 -17.4 -20.5 77 0.0 28 17   101.67   -26 LegendNANA
07:00 -17.7 -21.3 73 0.0 27 17   101.70   -27 LegendNANA
08:00 -17.8 -22.3 68 0.0 27 16   101.75   -27 LegendNANA
09:00 -16.9 -22.5 62 0.0 28 16   101.77   -26 LegendNANA
10:00 -16.2 -22.2 60 0.0 28 17   101.78   -25 LegendNANA
11:00 -15.6 -21.8 59 0.0 28 18   101.79   -24 LegendNANA
12:00 -14.9 -21.0 60 0.0 24 17   101.73   -23 LegendNANA
13:00 -14.8 -20.7 61 0.0 25 21   101.72   -24 LegendNANA
14:00 -14.2 -20.4 59 0.0 25 23   101.72   -24 LegendNANA
15:00 -13.4 -19.8 59 0.0 24 20   101.75   -22 LegendNANA
16:00 -13.2 -19.6 59 0.0 24 21   101.77   -22 LegendNANA
17:00 -13.9 -19.4 63 0.0 24 20   101.84   -23 LegendNANA
18:00 -14.5 -19.9 64 0.0 25 15   101.92   -22 LegendNANA
19:00 -15.1 -19.8 67 0.0 27 9   101.98   -21 LegendNANA
20:00 -15.7 -20.2 68 0.0 27 11   101.99   -22 LegendNANA
21:00 -17.0 -20.6 74 0.0 27 7   102.02   -22 LegendNANA
22:00 -17.6 -20.4 78 0.0 26 5   102.01   -22 LegendNANA
23:00 -18.5 -21.4 78 0.0 25 5   102.01   -23 LegendNANA

Notes on Data Quality.

Legend

  • E = Estimated
  • M = Missing
  • NA = Not Available*
  • [empty] = Indicates an unobserved value
Date modified: